San Jose, CA

4:39 PM PDT on June 20, 2018 (GMT -0700)
San Jose International

Weather History for KSJC - November, 2017

Change the Weather History Date:

Tuesday, November 14, 2017

  Actual Average Record
Temperature  
Mean Temperature 61 °F 55 °F  
Max Temperature 68 °F 65 °F 83 °F (2008)
Min Temperature 53 °F 46 °F 30 °F (1893)
Degree Days  
Heating Degree Days 4 10  
Month to date heating degree days 84 109  
Since 1 July heating degree days 132 219  
Cooling Degree Days 0 0  
Month to date cooling degree days 0 0  
Year to date cooling degree days 990 636  
Growing Degree Days 10 (Base 50)    
Moisture  
Dew Point 50 °F    
Average Humidity 64    
Maximum Humidity 93    
Minimum Humidity 34    
Precipitation  
Precipitation 0.00 in 0.05 in 1.23 in (1972)
Month to date precipitation 0.32 0.65  
Year to date precipitation 14.62 12.18  
Sea Level Pressure  
Sea Level Pressure 30.20 in    
Wind  
Wind Speed 5 mph (West)    
Max Wind Speed 12 mph    
Max Gust Speed 14 mph    
Visibility 10 miles    
Events      
T = Trace of Precipitation, MM = Missing Value Source: NWS Daily Summary

Daily Weather History Graph

Daily Weather History Graph

Search for Another Location

Airport or City:

Astronomy

Nov. 14, 2017 Rise Set
Actual Time 6:46 AM PST 4:57 PM PST
Civil Twilight 6:18 AM PST 5:25 PM PST
Nautical Twilight 5:47 AM PST 5:56 PM PST
Astronomical Twilight 5:16 AM PST 6:27 PM PST
Moon 2:58 AM PST (11/14) 3:19 PM PST (11/14)
Length of Visible Light 11h 06m
Length of Day
10h 11m
Waning Crescent, 13% of the Moon is Illuminated
Nov 14
Waning Crescent
Nov 18
New
Nov 26
First Quarter
Dec 3
Full
Dec 9
Last Quarter

Hourly Weather History & Observations

Time (PST) Temp. Dew Point Humidity Pressure Visibility Wind Dir Wind Speed Gust Speed Precip Events Conditions
12:53 AM 60.1 °F 57.0 °F 90% 30.23 in 10.0 mi NW 3.5 mph - N/A   Overcast
1:13 AM 61.0 °F 57.9 °F 90% 30.23 in 10.0 mi Calm Calm - N/A   Overcast
1:43 AM 61.0 °F 57.9 °F 90% 30.23 in 10.0 mi Calm Calm - N/A   Mostly Cloudy
1:53 AM 61.0 °F 57.9 °F 90% 30.23 in 10.0 mi Calm Calm - N/A   Overcast
2:07 AM 60.1 °F 57.9 °F 93% 30.23 in 10.0 mi NNW 5.8 mph - N/A   Overcast
2:45 AM 60.1 °F 57.9 °F 93% 30.24 in 10.0 mi WNW 6.9 mph - N/A   Overcast
2:53 AM 60.1 °F 57.9 °F 93% 30.24 in 10.0 mi WNW 6.9 mph - N/A   Overcast
3:53 AM 59.0 °F 55.9 °F 90% 30.24 in 10.0 mi West 6.9 mph - N/A   Overcast
4:53 AM 57.0 °F 55.0 °F 93% 30.24 in 10.0 mi West 8.1 mph - N/A   Mostly Cloudy
5:07 AM 57.0 °F 54.0 °F 89% 30.24 in 10.0 mi West 6.9 mph - N/A   Mostly Cloudy
5:53 AM 55.9 °F 54.0 °F 93% 30.24 in 10.0 mi WSW 4.6 mph - N/A   Scattered Clouds
6:44 AM 55.0 °F 53.1 °F 93% 30.25 in 10.0 mi SSW 3.5 mph - N/A   Mostly Cloudy
6:53 AM 55.9 °F 53.1 °F 90% 30.25 in 8.0 mi Calm Calm - N/A   Mostly Cloudy
7:22 AM 55.9 °F 53.1 °F 90% 30.25 in 8.0 mi SSW 3.5 mph - N/A   Scattered Clouds
7:53 AM 55.0 °F 53.1 °F 93% 30.25 in 10.0 mi Calm Calm - N/A   Partly Cloudy
8:26 AM 57.0 °F 54.0 °F 89% 30.26 in 10.0 mi SSE 3.5 mph - N/A   Mostly Cloudy
8:53 AM 57.9 °F 54.0 °F 87% 30.25 in 10.0 mi Calm Calm - N/A   Mostly Cloudy
9:53 AM 59.0 °F 54.0 °F 83% 30.25 in 10.0 mi WNW 4.6 mph - N/A   Mostly Cloudy
10:22 AM 60.1 °F 53.1 °F 78% 30.24 in 10.0 mi Calm Calm - N/A   Partly Cloudy
10:53 AM 62.1 °F 54.0 °F 75% 30.23 in 10.0 mi Calm Calm - N/A   Scattered Clouds
11:53 AM 64.0 °F 52.0 °F 65% 30.20 in 10.0 mi Variable 4.6 mph - N/A   Mostly Cloudy
12:53 PM 66.9 °F 43.0 °F 42% 30.17 in 10.0 mi West 9.2 mph - N/A   Scattered Clouds
1:53 PM 66.9 °F 39.0 °F 36% 30.16 in 10.0 mi WNW 8.1 mph - N/A   Mostly Cloudy
2:53 PM 66.9 °F 37.9 °F 34% 30.13 in 10.0 mi WNW 9.2 mph - N/A   Scattered Clouds
3:53 PM 66.0 °F 37.9 °F 36% 30.12 in 10.0 mi West 9.2 mph - N/A   Partly Cloudy
4:53 PM 61.0 °F 37.0 °F 41% 30.12 in 10.0 mi WNW 9.2 mph - N/A   Scattered Clouds
5:53 PM 59.0 °F 45.0 °F 60% 30.13 in 10.0 mi WNW 8.1 mph - N/A   Partly Cloudy
6:53 PM 57.9 °F 44.1 °F 60% 30.13 in 10.0 mi NW 8.1 mph - N/A   Scattered Clouds
7:53 PM 57.0 °F 43.0 °F 59% 30.14 in 10.0 mi Calm Calm - N/A   Partly Cloudy
8:53 PM 55.0 °F 45.0 °F 69% 30.14 in 10.0 mi Variable 3.5 mph - N/A   Mostly Cloudy
9:53 PM 55.0 °F 45.0 °F 69% 30.13 in 10.0 mi Calm Calm - N/A   Scattered Clouds
10:53 PM 54.0 °F 43.0 °F 66% 30.13 in 10.0 mi SSW 3.5 mph - N/A   Mostly Cloudy
11:53 PM 53.1 °F 44.1 °F 71% 30.12 in 10.0 mi Calm Calm - N/A   Mostly Cloudy